Airfield :
LOGIN :

Register | Disclaimer

   EN    FR    IT 

 










Legend :    VFR   Marginal VFR   IFR   Intensive IFR   Very Intensive IFR
Visi :
Ceiling :
>= 8 km
>= 3000ft
5 to 8 km
1000 to 3000 ft
1500m to 5 km
500 to 1000 ft
800 to 1500m
200 to 500 ft
< 800m
< 200 ft
Symbols :   Thunderstorms  Fog  Heavy snow  Heavy precipitations  Wind > 20 kt
SIGMETs :     Misc.  Thunderstorms  Icing  Turbulence  Mountain Waves  Volcanic Ashes







- Airport Elevation : 74 ft
- IATA code : LRH
- Download approach charts


LFBH - La Rochelle Ile de Ré

EXPIRED METARs :
  • 241430Z AUTO 27010KT CAVOK 24/12 Q1020 NOSIG
  • 241400Z AUTO 27011KT 240V300 CAVOK 23/13 Q1021 NOSIG
  • 241330Z AUTO 27010KT 230V290 CAVOK 24/13 Q1021 NOSIG
  • 241300Z AUTO 27010KT 240V320 CAVOK 23/14 Q1021 NOSIG
  • 241230Z AUTO 31009KT CAVOK 23/15 Q1021 NOSIG
  • 241200Z AUTO 27010KT 240V300 CAVOK 23/14 Q1021 NOSIG

Expired Forecast.
ATIS : +33 5 46 00 13 92
No reported NOTAMs for that airfield.



MET'MAP, your aeronautical weather chart ! - Copyright ORBIFLY December 2007 - Disclaimer

ORBIFLY MET'MAP TEAM :

Programming & Development : Alexandra Zaïnal
Concept & Development : Baudouin d'Aumeries
Co-Development & Prog : Marc-Olivier Méhu
Technical & hardware support : Manuel Goepfert

Contact : metmap@orbifly.com




SOURCES & CREDITS :

   NOAA